Simultaneous Nadir Overpasses (SNOs) Predictions

Prediction of SNOs between METOP-B and TERRA Satellite Orbit:

Table of predicted SNOs for the next 14.0 days since TLE Epoch: 11/3/2013
Index Date (METOP-B) Time (METOP-B) Lat,Lon (METOP-B) SZA (METOP-B ) Date (TERRA) Time (TERRA) Lat,Lon (TERRA) SZA (TERRA ) Distance(km) Time Diff (sec)
1 11/04/2013 12:50:11 -81.32,-145.16 80.02 11/04/2013 12:51:25 -81.32,-145.29 80.00 2.20 74
2 11/04/2013 13:40:52 81.32, 22.30 100.01 11/04/2013 13:40:51 81.32, 22.43 100.02 2.11 1
3 11/04/2013 14:31:31 -81.33,-169.91 79.93 11/04/2013 14:30:18 -81.32,-169.97 79.98 1.36 73
4 11/07/2013 08:24:31 -81.32, -78.87 79.20 11/07/2013 08:25:42 -81.31, -79.03 79.19 2.88 71
5 11/07/2013 09:15:11 81.33, 88.94 100.87 11/07/2013 09:15:07 81.33, 89.05 100.89 2.11 4
6 11/10/2013 03:58:49 -81.32, -12.25 78.38 11/10/2013 03:59:56 -81.33, -12.25 78.35 0.61 67
7 11/10/2013 04:49:29 81.33, 155.49 101.68 11/10/2013 04:49:22 81.33, 155.42 101.67 1.16 7
8 11/12/2013 23:33:09 -81.32, 53.90 77.66 11/12/2013 23:34:12 -81.31, 53.89 77.64 0.76 63
9 11/13/2013 00:23:48 81.33,-138.03 102.44 11/13/2013 00:23:37 81.33,-138.08 102.44 0.91 11
10 11/15/2013 19:07:28 -81.32, 120.37 76.94 11/15/2013 19:08:26 -81.32, 120.53 76.90 2.83 58




NCC Satellite Simultaneous Nadir Overpasses (SNOs) Prediction Service
